Time,TemperatureF,DewpointF,PressureIn,WindDirection,WindDirectionDegrees,WindSpeedMPH,WindSpeedGustMPH,Humidity,HourlyPrecipIn,Conditions,Clouds,dailyrainin,SoftwareType,DateUTC
2013-01-31 00:07:00,60.3,58.8,29.72,NNE,22,1.6,-999.0,95,-99.99,,,0.02,Acu-Link.com,2013-01-31 05:07:00,
2013-01-31 00:22:00,58.1,56.7,29.72,WSW,247,6.3,-999.0,95,-99.99,,,0.08,Acu-Link.com,2013-01-31 05:22:00,
2013-01-31 00:37:00,56.3,55.5,29.73,NNW,337,5.8,-999.0,97,-99.99,,,0.17,Acu-Link.com,2013-01-31 05:37:00,
2013-01-31 00:53:00,55.0,52.8,29.73,West,270,1.1,-999.0,92,-99.99,,,0.30,Acu-Link.com,2013-01-31 05:53:00,
2013-01-31 01:08:00,54.9,53.2,29.73,WSW,247,0.0,-999.0,94,-99.99,,,0.30,Acu-Link.com,2013-01-31 06:08:00,
2013-01-31 01:23:00,54.1,53.0,29.73,NNW,337,1.6,-999.0,96,-99.99,,,0.31,Acu-Link.com,2013-01-31 06:23:00,
2013-01-31 01:39:00,54.5,53.7,29.74,SSW,202,0.0,-999.0,97,-99.99,,,0.31,Acu-Link.com,2013-01-31 06:39:00,
2013-01-31 01:54:00,54.7,53.8,29.75,SW,225,0.0,-999.0,97,-99.99,,,0.31,Acu-Link.com,2013-01-31 06:54:00,
2013-01-31 02:09:00,54.7,54.4,29.75,NNE,22,0.0,-999.0,99,-99.99,,,0.31,Acu-Link.com,2013-01-31 07:09:00,
2013-01-31 02:25:00,54.7,54.4,29.76,NNW,337,1.6,-999.0,99,-99.99,,,0.31,Acu-Link.com,2013-01-31 07:25:00,
2013-01-31 02:40:00,54.9,54.6,29.76,NNW,337,3.8,-999.0,99,-99.99,,,0.31,Acu-Link.com,2013-01-31 07:40:00,
2013-01-31 02:55:00,55.0,54.8,29.76,NW,315,1.6,-999.0,99,-99.99,,,0.31,Acu-Link.com,2013-01-31 07:55:00,
2013-01-31 03:10:00,54.9,54.0,29.77,NW,315,1.6,-999.0,97,-99.99,,,0.31,Acu-Link.com,2013-01-31 08:10:00,
2013-01-31 03:26:00,54.3,52.6,29.77,North,0,1.6,-999.0,94,-99.99,,,0.31,Acu-Link.com,2013-01-31 08:26:00,
2013-01-31 03:41:00,53.6,51.3,29.78,NNE,22,2.2,-999.0,92,-99.99,,,0.31,Acu-Link.com,2013-01-31 08:41:00,
2013-01-31 03:56:00,53.1,50.8,29.78,WSW,247,2.2,-999.0,92,-99.99,,,0.31,Acu-Link.com,2013-01-31 08:56:00,
2013-01-31 04:15:00,52.9,50.3,29.78,West,270,2.2,-999.0,91,-99.99,,,0.31,Acu-Link.com,2013-01-31 09:15:00,
2013-01-31 04:30:00,52.3,50.1,29.78,North,0,1.1,-999.0,92,-99.99,,,0.31,Acu-Link.com,2013-01-31 09:30:00,
2013-01-31 04:45:00,51.8,50.4,29.79,WNW,292,0.0,-999.0,95,-99.99,,,0.31,Acu-Link.com,2013-01-31 09:45:00,
2013-01-31 05:01:00,52.0,51.2,29.80,WNW,292,1.6,-999.0,97,-99.99,,,0.31,Acu-Link.com,2013-01-31 10:01:00,
2013-01-31 05:16:00,51.6,51.1,29.81,NNW,337,1.1,-999.0,98,-99.99,,,0.31,Acu-Link.com,2013-01-31 10:16:00,
2013-01-31 05:31:00,51.3,49.3,29.81,NNW,337,2.2,-999.0,93,-99.99,,,0.31,Acu-Link.com,2013-01-31 10:31:00,
2013-01-31 05:46:00,50.5,45.9,29.82,NNE,22,2.7,-999.0,84,-99.99,,,0.31,Acu-Link.com,2013-01-31 10:46:00,
2013-01-31 06:01:00,49.8,43.6,29.84,North,0,3.1,-999.0,79,-99.99,,,0.31,Acu-Link.com,2013-01-31 11:01:00,
2013-01-31 06:17:00,49.3,42.4,29.85,West,270,2.7,-999.0,77,-99.99,,,0.31,Acu-Link.com,2013-01-31 11:17:00,
2013-01-31 06:32:00,48.6,42.0,29.86,WNW,292,4.3,-999.0,78,-99.99,,,0.31,Acu-Link.com,2013-01-31 11:32:00,
2013-01-31 06:47:00,48.0,42.1,29.87,WNW,292,1.6,-999.0,80,-99.99,,,0.31,Acu-Link.com,2013-01-31 11:47:00,
2013-01-31 07:03:00,47.5,41.3,29.89,WNW,292,2.7,-999.0,79,-99.99,,,0.31,Acu-Link.com,2013-01-31 12:03:00,
2013-01-31 07:18:00,46.8,40.9,29.89,NW,315,2.2,-999.0,80,-99.99,,,0.31,Acu-Link.com,2013-01-31 12:18:00,
2013-01-31 07:33:00,46.4,40.2,29.90,NNW,337,2.2,-999.0,79,-99.99,,,0.31,Acu-Link.com,2013-01-31 12:33:00,
2013-01-31 07:49:00,46.2,40.7,29.91,NW,315,2.7,-999.0,81,-99.99,,,0.31,Acu-Link.com,2013-01-31 12:49:00,
2013-01-31 08:04:00,46.2,40.7,29.92,NW,315,2.7,-999.0,81,-99.99,,,0.31,Acu-Link.com,2013-01-31 13:04:00,
2013-01-31 08:19:00,46.8,40.6,29.93,North,0,1.6,-999.0,79,-99.99,,,0.31,Acu-Link.com,2013-01-31 13:19:00,
2013-01-31 08:34:00,48.7,39.8,29.94,NNW,337,2.2,-999.0,71,-99.99,,,0.31,Acu-Link.com,2013-01-31 13:34:00,
2013-01-31 08:50:00,50.0,40.2,29.95,WNW,292,3.1,-999.0,69,-99.99,,,0.31,Acu-Link.com,2013-01-31 13:50:00,
2013-01-31 09:05:00,50.4,39.4,29.96,ESE,112,1.6,-999.0,66,-99.99,,,0.31,Acu-Link.com,2013-01-31 14:05:00,
2013-01-31 09:20:00,50.9,37.5,29.96,NNW,337,3.8,-999.0,60,-99.99,,,0.31,Acu-Link.com,2013-01-31 14:20:00,
2013-01-31 09:36:00,51.3,36.1,29.96,NW,315,2.7,-999.0,56,-99.99,,,0.31,Acu-Link.com,2013-01-31 14:36:00,
2013-01-31 09:51:00,51.1,34.1,29.97,WNW,292,2.7,-999.0,52,-99.99,,,0.31,Acu-Link.com,2013-01-31 14:51:00,
2013-01-31 10:06:00,53.1,33.9,29.97,West,270,2.7,-999.0,48,-99.99,,,0.31,Acu-Link.com,2013-01-31 15:06:00,
2013-01-31 10:22:00,52.2,33.6,29.97,West,270,2.7,-999.0,49,-99.99,,,0.31,Acu-Link.com,2013-01-31 15:22:00,
2013-01-31 10:37:00,52.7,34.6,29.98,West,270,2.2,-999.0,50,-99.99,,,0.31,Acu-Link.com,2013-01-31 15:37:00,
2013-01-31 10:52:00,51.8,31.7,29.98,East,90,2.7,-999.0,46,-99.99,,,0.31,Acu-Link.com,2013-01-31 15:52:00,
2013-01-31 11:07:00,53.1,31.2,29.98,NNW,337,2.2,-999.0,43,-99.99,,,0.31,Acu-Link.com,2013-01-31 16:07:00,
2013-01-31 11:22:00,53.4,32.1,29.98,SSW,202,1.6,-999.0,44,-99.99,,,0.31,Acu-Link.com,2013-01-31 16:22:00,
2013-01-31 11:38:00,53.4,29.7,29.97,West,270,3.8,-999.0,40,-99.99,,,0.31,Acu-Link.com,2013-01-31 16:38:00,
2013-01-31 11:53:00,55.2,30.7,29.97,NW,315,2.2,-999.0,39,-99.99,,,0.31,Acu-Link.com,2013-01-31 16:53:00,
2013-01-31 12:08:00,55.2,28.7,29.97,SW,225,2.7,-999.0,36,-99.99,,,0.31,Acu-Link.com,2013-01-31 17:08:00,
2013-01-31 12:24:00,55.6,30.4,29.97,NW,315,2.7,-999.0,38,-99.99,,,0.31,Acu-Link.com,2013-01-31 17:24:00,
2013-01-31 12:39:00,55.0,28.6,29.97,NW,315,2.7,-999.0,36,-99.99,,,0.31,Acu-Link.com,2013-01-31 17:39:00,
2013-01-31 12:54:00,56.7,28.6,29.96,NW,315,5.1,-999.0,34,-99.99,,,0.31,Acu-Link.com,2013-01-31 17:54:00,
2013-01-31 13:10:00,56.5,28.5,29.97,East,90,2.2,-999.0,34,-99.99,,,0.31,Acu-Link.com,2013-01-31 18:10:00,
2013-01-31 13:25:00,56.3,26.8,29.94,NNW,337,3.1,-999.0,32,-99.99,,,0.31,Acu-Link.com,2013-01-31 18:25:00,
2013-01-31 13:40:00,58.6,29.6,29.95,North,0,3.1,-999.0,33,-99.99,,,0.31,Acu-Link.com,2013-01-31 18:40:00,
2013-01-31 13:55:00,58.3,30.0,29.95,NNW,337,3.1,-999.0,34,-99.99,,,0.31,Acu-Link.com,2013-01-31 18:55:00,
2013-01-31 14:11:00,58.6,28.1,29.95,WSW,247,3.8,-999.0,31,-99.99,,,0.31,Acu-Link.com,2013-01-31 19:11:00,
2013-01-31 14:26:00,58.3,26.2,29.94,NW,315,4.3,-999.0,29,-99.99,,,0.31,Acu-Link.com,2013-01-31 19:26:00,
2013-01-31 14:41:00,59.5,27.3,29.95,West,270,3.1,-999.0,29,-99.99,,,0.31,Acu-Link.com,2013-01-31 19:41:00,
2013-01-31 14:57:00,58.3,27.8,29.95,West,270,2.7,-999.0,31,-99.99,,,0.31,Acu-Link.com,2013-01-31 19:57:00,
2013-01-31 15:12:00,59.9,27.6,29.94,NNW,337,3.8,-999.0,29,-99.99,,,0.31,Acu-Link.com,2013-01-31 20:12:00,
2013-01-31 15:27:00,59.0,28.4,29.95,NE,45,2.7,-999.0,31,-99.99,,,0.31,Acu-Link.com,2013-01-31 20:27:00,
2013-01-31 15:42:00,59.4,25.4,29.95,NW,315,3.8,-999.0,27,-99.99,,,0.31,Acu-Link.com,2013-01-31 20:42:00,
2013-01-31 15:58:00,58.3,26.2,29.95,SW,225,6.3,-999.0,29,-99.99,,,0.31,Acu-Link.com,2013-01-31 20:58:00,
2013-01-31 16:13:00,57.9,27.5,29.95,SW,225,1.6,-999.0,31,-99.99,,,0.31,Acu-Link.com,2013-01-31 21:13:00,
2013-01-31 16:28:00,58.8,28.3,29.96,NW,315,3.1,-999.0,31,-99.99,,,0.31,Acu-Link.com,2013-01-31 21:28:00,
2013-01-31 16:44:00,57.6,27.2,29.96,NNW,337,5.1,-999.0,31,-99.99,,,0.31,Acu-Link.com,2013-01-31 21:44:00,
2013-01-31 16:59:00,56.8,26.5,29.96,NNE,22,3.1,-999.0,31,-99.99,,,0.31,Acu-Link.com,2013-01-31 21:59:00,
2013-01-31 17:14:00,56.3,28.3,29.96,West,270,1.6,-999.0,34,-99.99,,,0.31,Acu-Link.com,2013-01-31 22:14:00,
2013-01-31 17:29:00,55.8,28.5,29.96,West,270,1.6,-999.0,35,-99.99,,,0.31,Acu-Link.com,2013-01-31 22:29:00,
2013-01-31 17:45:00,55.0,28.6,29.96,WNW,292,1.1,-999.0,36,-99.99,,,0.31,Acu-Link.com,2013-01-31 22:45:00,
2013-01-31 18:00:00,54.3,28.6,29.97,WNW,292,1.1,-999.0,37,-99.99,,,0.31,Acu-Link.com,2013-01-31 23:00:00,
2013-01-31 18:15:00,53.1,31.7,29.98,SSE,157,0.0,-999.0,44,-99.99,,,0.31,Acu-Link.com,2013-01-31 23:15:00,
2013-01-31 18:31:00,51.6,32.6,29.99,ESE,112,0.0,-999.0,48,-99.99,,,0.31,Acu-Link.com,2013-01-31 23:31:00,
2013-01-31 18:46:00,50.0,33.1,29.99,East,90,0.0,-999.0,52,-99.99,,,0.31,Acu-Link.com,2013-01-31 23:46:00,
2013-01-31 19:01:00,48.4,34.3,30.00,East,90,0.0,-999.0,58,-99.99,,,0.31,Acu-Link.com,2013-02-01 00:01:00,
2013-01-31 19:17:00,47.3,35.4,30.00,SE,135,0.0,-999.0,63,-99.99,,,0.31,Acu-Link.com,2013-02-01 00:17:00,
2013-01-31 19:32:00,46.2,35.9,30.01,SE,135,0.0,-999.0,67,-99.99,,,0.31,Acu-Link.com,2013-02-01 00:32:00,
2013-01-31 19:47:00,45.9,35.5,30.01,SE,135,0.0,-999.0,67,-99.99,,,0.31,Acu-Link.com,2013-02-01 00:47:00,
2013-01-31 20:02:00,45.0,35.8,30.02,SSW,202,0.0,-999.0,70,-99.99,,,0.31,Acu-Link.com,2013-02-01 01:02:00,
2013-01-31 20:18:00,44.2,35.4,30.03,East,90,0.0,-999.0,71,-99.99,,,0.31,Acu-Link.com,2013-02-01 01:18:00,
2013-01-31 20:33:00,43.7,36.0,30.04,SE,135,0.0,-999.0,74,-99.99,,,0.31,Acu-Link.com,2013-02-01 01:33:00,
2013-01-31 20:48:00,43.3,37.6,30.05,South,180,0.0,-999.0,80,-99.99,,,0.31,Acu-Link.com,2013-02-01 01:48:00,
2013-01-31 21:04:00,42.4,36.4,30.05,SSE,157,0.0,-999.0,79,-99.99,,,0.31,Acu-Link.com,2013-02-01 02:04:00,
2013-01-31 21:19:00,42.1,35.4,30.05,SSE,157,0.0,-999.0,77,-99.99,,,0.31,Acu-Link.com,2013-02-01 02:19:00,
2013-01-31 21:34:00,41.5,36.5,30.05,SSE,157,0.0,-999.0,82,-99.99,,,0.31,Acu-Link.com,2013-02-01 02:34:00,
2013-01-31 21:50:00,41.2,36.4,30.06,SSE,157,0.0,-999.0,83,-99.99,,,0.31,Acu-Link.com,2013-02-01 02:50:00,
2013-01-31 22:05:00,40.8,36.7,30.06,West,270,0.0,-999.0,85,-99.99,,,0.31,Acu-Link.com,2013-02-01 03:05:00,
2013-01-31 22:20:00,40.1,36.8,30.07,NW,315,0.0,-999.0,88,-99.99,,,0.31,Acu-Link.com,2013-02-01 03:20:00,
2013-01-31 22:35:00,39.7,37.1,30.07,West,270,0.0,-999.0,90,-99.99,,,0.31,Acu-Link.com,2013-02-01 03:35:00,
2013-01-31 22:51:00,40.1,37.1,30.06,NNW,337,0.0,-999.0,89,-99.99,,,0.31,Acu-Link.com,2013-02-01 03:51:00,
2013-01-31 23:06:00,40.6,36.5,30.06,WNW,292,0.0,-999.0,85,-99.99,,,0.31,Acu-Link.com,2013-02-01 04:06:00,
2013-01-31 23:21:00,41.2,35.8,30.07,West,270,0.0,-999.0,81,-99.99,,,0.31,Acu-Link.com,2013-02-01 04:21:00,
2013-01-31 23:37:00,40.8,37.0,30.06,WNW,292,0.0,-999.0,86,-99.99,,,0.31,Acu-Link.com,2013-02-01 04:37:00,
2013-01-31 23:52:00,40.5,35.7,30.07,NW,315,0.0,-999.0,83,-99.99,,,0.31,Acu-Link.com,2013-02-01 04:52:00,